METEOR 2-8 DEB

Satellite information

Favourite Embed

Satellite Type and Status

DEBRISIN ORBIT

Key statistics

Satellite METEOR 2-8 DEB at a glance.

Uptime

15749

Days in orbit

Revolutions

≈ 14.2

Per day

Orbit

LEO

Low Earth Orbit

Inclination

82.5

Latest

Satellite identification and parameters

Extended collection of information and parameters for METEOR 2-8 DEB.

Object identification

Identified? True

Debris? True

Object name: METEOR 2-8 DEB

International designator: 1982-025AW

Object number (NORAD): 36859

Object ID (CCSDS): 36859

Country: COMMONWEALTH OF INDEPENDENT STATES (CIS)

Current information (Y/N): Y

RCS size: SMALL

Orbital parameters

Period: 101.387 minutes

Inclination: 82.5227 deg

SMA: 7202.487 km

Apoapsis: 845.919 km

Periapsis: 802.784 km

RAAN: 201.362 deg

Eccentricy: 0.0029945

Argument of periapsis: 257.4349 deg

Mean anomaly: 102.3481 deg

Mean motion: 14.20296714 rev/day

Mean motion (dot): 0.00007016 rev/day2

B* drag term: 0.0032587 1/REarth

Two-line elements (TLE)

Creation date: May 6, 2025, 3:54 a.m.

Reference frame: TEME

Reference center: EARTH

Epoch: May 5, 2025, 11:18 a.m. UTC

TLE line 0: 0 METEOR 2-8 DEB

TLE line 1: 1 36859U 82025AW 25125.47103894 .00007016 00000-0 32587-2 0 9990

TLE line 2: 2 36859 82.5227 201.3620 0029945 257.4349 102.3481 14.20296714 45066

Live tracking on map

Real-time ground track for satellite METEOR 2-8 DEB.

In-orbit conjunctions

A list of the most updated potential collisions computed for object METEOR 2-8 DEB.

Target Orbit TCA Probability of collision Miss distance Type
FENGYUN 1C DEB SSO 2024-11-13 08:13:58 0.0007012494 71.0 (m) DEBRIS
SL-3 DEB LEO 2024-09-25 23:41:43 0.0001899229 959.0 (m) DEBRIS
FENGYUN 1C DEB SSO 2024-08-12 12:52:39 0.0004416172 71.0 (m) DEBRIS
DELTA 1 DEB SSO 2024-08-01 23:33:15 0.0001821743 55.0 (m) DEBRIS

Associated space launch

Second generation soviet meteorological satellite

METEOR 2-8 DEB was lifted into orbit during the mission ‘Tsiklon-3 | Meteor-2 8’, on board a Tsiklon-3 space rocket.

The launch took place on March 25, 1982, 9:50 a.m. from 32/1.

For more information about the launch, click the button.

Launch to space Tsiklon-3 | Meteor-2 8
Tsiklon-3 | Meteor-2 8

Agency: N/A

Status: Launch Successful

Launch date: March 25, 1982, 9:50 a.m. UTC

Rocket: Tsiklon-3

Launch pad: 32/1

Location: Plesetsk Cosmodrome, Russian Federation

...

Latest news about this satellite

There are no fresh news available about this satellite. Check back as we update our databases every day.


Newsletter sign-up

Weekly statistics, charts and insights to help you stay on top of the space industry.